This demonstration page uses our WeatherBlox Daily Observations layout. Learn more.

Left ArrowRight Arrow

39.01783, -85.05884

Hourly Observations for September 3, 2020

Temp ( °F °C ) Dew Point ( °F °C ) Humidity (%) Winds ( mph kmh ) Pressure ( in mb ) Visibility ( mi km ) Precip ( " mm )
12:52 am 00:52 Cloudy 74 23.3 71 21.7 91 91 Calm 29.86 1011 10 16 0.00 0.00
1:52 am 01:52 Cloudy 74 23.3 70 21.1 88 88 N 5 7 29.86 1011 10 16 0.00 0.00
2:52 am 02:52 Cloudy 74 23.3 69 20.6 85 85 ENE 5 7 29.85 1011 10 16 0.00 0.00
3:52 am 03:52 Cloudy with Light Rain 73 22.8 69 20.6 87 87 Calm 29.84 1011 9 14 0.00 0.00
4:03 am 04:03 Cloudy with Light Rain 74 23.3 70 21.1 88 88 Calm 29.85 1011 9 14 0.00 0.00
4:42 am 04:42 Cloudy with Rain 73 22.8 70 21.1 90 90 ENE 7 11 29.83 1010 8 13 0.06 1.52
4:52 am 04:52 Cloudy with Rain 73 22.8 70 21.1 90 90 ENE 6 9 29.83 1010 8 13 0.08 2.03
5:35 am 05:35 Cloudy with Rain 72 22.2 70 21.1 94 94 E 7 11 29.83 1010 3 5 0.14 3.56
5:52 am 05:52 Cloudy with Rain 72 22.2 70 21.1 94 94 ENE 5 7 29.82 1010 3 5 0.20 5.08
6:23 am 06:23 Cloudy with Light Rain 72 22.2 70 21.1 94 94 E 8 13 29.81 1010 3 5 0.11 2.79
6:52 am 06:52 Cloudy with Light Rain 72 22.2 69 20.6 91 91 ENE 6 9 29.81 1010 3 5 0.13 3.30
7:27 am 07:27 Cloudy with Light Rain 72 22.2 69 20.6 91 91 E 6 9 29.82 1010 3 5 0.00 0.00
7:52 am 07:52 Cloudy with Light Rain 72 22.2 69 20.6 91 91 Calm 29.82 1010 3 5 0.00 0.00
8:05 am 08:05 Cloudy with Heavy Rain 72 22.2 69 20.6 91 91 E 5 7 29.82 1010 3 4 0.02 0.51
8:34 am 08:34 Cloudy with Light Rain 72 22.2 70 21.1 94 94 ESE 5 7 29.81 1010 3 5 0.08 2.03
8:52 am 08:52 Cloudy with Light Rain 72 22.2 70 21.1 94 94 ESE 5 7 29.81 1009 4 6 0.09 2.29
9:52 am 09:52 Cloudy with Light Rain 72 22.2 69 20.6 91 91 ESE 6 9 29.80 1009 7 11 0.02 0.51
10:29 am 10:29 Cloudy 73 22.8 69 20.6 87 87 ESE 5 7 29.80 1009 10 16 0.01 0.25
10:52 am 10:52 Cloudy 74 23.3 68 20 82 82 Calm 29.80 1009 10 16 0.01 0.25
11:52 am 11:52 Mostly Cloudy 78 25.6 69 20.6 74 74 WSW 3 6 29.82 1010 10 16 0.00 0.00
12:29 pm 12:29 Mostly Cloudy 79 26.1 70 21.1 74 74 W 12 19 29.81 1009 10 16 0.00 0.00
12:52 pm 12:52 Mostly Cloudy 80 26.7 70 21.1 71 71 W 14 22 29.83 1010 10 16 0.00 0.00
12:59 pm 12:59 Mostly Cloudy 80 26.7 70 21.1 71 71 WSW 9 15 29.82 1010 10 16 0.00 0.00
1:52 pm 13:52 Mostly Cloudy 82 27.8 70 21.1 67 67 W 12 19 29.82 1010 10 16 0.00 0.00
2:52 pm 14:52 Mostly Cloudy 81 27.2 70 21.1 69 69 W 12 19 29.80 1009 10 16 0.00 0.00
3:52 pm 15:52 Mostly Cloudy 83 28.3 70 21.1 65 65 WSW 13 20 29.80 1009 10 16 0.00 0.00
4:52 pm 16:52 Mostly Cloudy 84 28.9 69 20.6 61 61 W 15 24 29.79 1009 10 16 0.00 0.00
5:52 pm 17:52 Mostly Cloudy 82 27.8 69 20.6 65 65 W 12 19 29.81 1009 10 16 0.00 0.00
6:52 pm 18:52 Cloudy 81 27.2 67 19.4 62 62 W 8 13 29.81 1010 10 16 0.00 0.00
7:52 pm 19:52 Mostly Cloudy 78 25.6 66 18.9 67 67 WSW 6 9 29.83 1010 10 16 0.00 0.00
8:52 pm 20:52 Cloudy 76 24.4 66 18.9 72 72 SW 8 13 29.85 1011 10 16 0.00 0.00
9:52 pm 21:52 Cloudy 75 23.9 66 18.9 74 74 WSW 8 13 29.88 1012 10 16 0.00 0.00
10:52 pm 22:52 Cloudy 75 23.9 67 19.4 76 76 WSW 7 11 29.90 1012 10 16 0.00 0.00
11:52 pm 23:52 Mostly Cloudy 74 23.3 67 19.4 79 79 WSW 8 13 29.89 1012 10 16 0.00 0.00

Powered by AerisWeather